SL-12 R/B(2), 33471

Orbit data source: Space-Track

SL-12 R/B(2), 33471 is space debris in MEO originally from a launch on Thu, 25 Dec 2008 UTC launched from the Tyuratam Missile And Space Complex (TTMTR). Debris objects in space refer to the collection of defunct objects orbiting the Earth. Examples of debris include non-operational satellites, rocket bodies, and fragments generated from explosions, collisions, or faulty payload assembly.

Loading next visibility...
Identifier
33471, 2008-067F
Orbit
MEO
Last TLE update
3 days ago
Origin
Manufacturer
RKKE
Mission
Spacecraft
Bus & Motor
BLOK DM2, 11D58M
Mass
2,440 kg wet, 2,440 kg dry
Launch date (UTC)
2008-12-25 (17 years ago)
Launch vehicle
Unknown
Launch site
Tyuratam Missile And Space Complex (TTMTR)
Object type
Payload
Rocket body
Debris
Shape & HBR
Cyl, 7.1 m
Radar Cross Section
26.008 m², Large (>1 m²)

Expand to show TLE details & history

TLE from 3 days ago
0 SL-12 R/B(2)
1 33471U 08067F   25179.48100373 -.00000025  00000-0  00000-0 0  9997
2 33471  64.6048  81.1540 0004734 342.0968 199.4066  2.13248644128557
Epoch: 2025-06-28T11:32Z
TLE epoch observation values (Epoch: 2025-06-28T11:32:38.722Z)
Latitude
-1.36095°
Longitude
171.83301°
Altitude
19,130.321 km
Speed
3.952 km/s
True Right ascension
17h 27m 15s
True Declination
-1° 21' 31"
Sunlit
Object was in daylight at epoch
Visualization orbit readout
Latitude
-62.31437°
Longitude
-73.40854°
Altitude
19,135.515 km
Speed
3.954 km/s
Apparent Right ascension
02h 38m 50s
Apparent Declination
-70° 33' 43"
Sunlit
Object is in daylight
Visualization observer readout
Local Sidereal Time
21:50:28
Azimuth
158.13° S
Elevation
-31.777°
Doppler factor
1
Orbital elements
Apogee altitude
19,129.89 km
Perigee altitude
19,105.751 km
Semi-major axis
25,495.958 km
Eccentricity
0.00047
Inclination
64.6048°
RAAN
81.154°
Arg. of periapsis
342.0968°
True anomaly
Unknown
Mean anomaly
199.4066°
Eccentric anomaly
Unknown
Mean motion
0.53313 °/min
Orbital period
675.25 mins
BSTAR
0
Loading maneuver chart data...
Loading SW <> Apogee altitude chart data...
Loading historical data...
Loading historical data...
Loading historical data...
Loading historical data...
Loading historical data...
Loading historical data...
Loading historical data...

SL-12 R/B(2) Visibility forecast

Observer location: undefined°, undefined°

Span
Click to sort rows by Start time (UTC) header in descending order
Start Az.
Max El. time (UTC)
Max El. Az.
Max El.
End time (UTC)
End Az.
117 mins2025-07-01 13:26:03.719Z80.402° E2025-07-01 14:26:03.719Z50.548° ENE18.373°2025-07-01 15:23:03.719Z24.303° NE
303 mins2025-07-02 01:22:03.719Z303.962° NW2025-07-02 04:07:03.719Z88.003° E44.999°2025-07-02 06:25:03.719Z177.694° S
|